Regional Weather Roundup
Issued by NWS

Home | Current Version | Previous Version | Text Only | Print | Product List | Glossary Off
Versions: 1 2 3 4 5 6 7 8 9 10 11 12 13 14 15 16 17 18 19 20 21 22 23 24 25 26 27 28 29 30 31 32 33 34 35 36 37 38 39 40 41 42 43 44 45 46 47 48 49 50

000
ASUS43 KDMX 230508
RWRIA

WEATHER ROUNDUP FOR IOWA
NATIONAL WEATHER SERVICE DES MOINES IA
1200 AM CDT SAT JUL 23 2016

NOTE: "FAIR" INDICATES FEW OR NO CLOUDS BELOW 12,000 FEET WITH NO
SIGNIFICANT WEATHER AND/OR OBSTRUCTIONS TO VISIBILITY.

* - THESE STATIONS ARE NOT NWS STATIONS...THUS NOT UNDER NWS
QUALITY CONTROL.  THEY ALSO DO NOT REPORT WEATHER SUCH
AS PRECIPITATION OR FOG.

IAZ001>003-012>014-020>022-031>034-043>046-230600-
   NORTHWEST IOWA

CITY           SKY/WX    TMP DP  RH WIND       PRES   REMARKS
CARROLL *      CLOUDY    81  79  94 SE5       29.96S HX  89
CHEROKEE *     CLOUDY    81  80  96 E5        29.94R HX  91
DENISON *      PTCLDY    81  79  94 SE7       29.93S HX  89
LE MARS *      CLOUDY    82  79  89 SE7       29.94R HX  93
SHELDON *      CLOUDY    79  79 100 SE5       29.94S HX  83
SPENCER        MOCLDY    81  77  88 SE10      29.95F HX  88
STORM LAKE *   PTCLDY    81  79  94 SE8       29.96R HX  89
$$

IAZ055>058-069>071-079>083-090>094-230600-
   SOUTHWEST IOWA

CITY           SKY/WX    TMP DP  RH WIND       PRES   REMARKS
ATLANTIC *     MOCLDY    82  77  83 SE5       29.95R HX  91
CLARINDA *       N/A     84  79  84 MISG      29.96S HX  96
COUNCIL BLFS *   N/A     82  79  89 S9        29.93S HX  93
CRESTON *      PTCLDY    79  77  94 S8        29.99R HX  83
HARLAN  *      MOCLDY    81  79  94 SE3       29.97S HX  89
LAMONI         CLEAR     79  77  94 S8        29.97S HX  83
RED OAK *      MOCLDY    82  79  89 S6        29.94R HX  93
SHENANDOAH *   CLOUDY    84  81  89 S7G14     29.94R HX  98
$$

IAZ047>049-059>061-072>074-084-230600-
   CENTRAL IOWA

CITY           SKY/WX    TMP DP  RH WIND       PRES   REMARKS
AMES           CLEAR     79  79 100 E5        29.97R HX  84
ANKENY *         N/A    N/A N/A N/A MISG        N/A
BOONE *        MOCLDY    79  79 100 E6        29.97S HX  83
CHARITON *       N/A    N/A N/A N/A MISG        N/A
DES MOINES     PTCLDY    83  77  82 SE6       29.95S HX  92
GRINNELL*      CLEAR     76  74  93 E3        30.00R
KNOXVILLE *    CLEAR     79  75  89 SE5       29.97R HX  82
MARSHALLTOWN   CLEAR     77  76  96 E6        29.98S
NEWTON *       CLEAR     79  79 100 E5        29.98R HX  83
PELLA *        CLEAR     78  75  91 SE3       29.99R HX  81
PERRY *          N/A     80  79  97 E3        29.96S HX  85
$$

IAZ004>006-015-016-023>025-035-036-230600-
   NORTH CENTRAL IOWA

CITY           SKY/WX    TMP DP  RH WIND       PRES   REMARKS
ALGONA *       MOCLDY    81  79  94 SE9       29.96F HX  89
ESTHERVILLE    MOCLDY    79  78  97 SE7       29.95F HX  83
FORT DODGE *   PTCLDY    81  79  94 SE8       29.96F HX  89
MASON CITY     PTCLDY    78  77  96 E6        29.99F HX  81
FOREST CITY *    N/A     77  77 100 SE6       29.98F
IOWA FALLS *     N/A     80  76  89 SE6       30.00S HX  85
$$

IAZ007>011-017>019-026>030-037>042-050>054-066-230600-
   NORTHEAST IOWA

CITY           SKY/WX    TMP DP  RH WIND       PRES   REMARKS
CEDAR RAPIDS   CLEAR     77  77 100 SE3       29.99R
CHARLES CITY * CLOUDY    77  77 100 E3        30.00S
CLINTON *      MOCLDY    77  76  96 CALM      30.01R
DECORAH *      PTCLDY    77  77 100 CALM      30.00F
DUBUQUE        CLEAR     77  75  93 CALM      30.01S
MONTICELLO *   MOCLDY    77  77 100 CALM      29.99S
OELWEIN *      PTCLDY    77  77 100 SE3       30.01S FOG
WATERLOO       PTCLDY    77  75  93 E5        29.98S
$$

IAZ064-065-067-068-078-230600-
   EAST CENTRAL IOWA

CITY           SKY/WX    TMP DP  RH WIND       PRES   REMARKS
DAVENPORT      PTCLDY    76  74  93 CALM      30.01R
IOWA CITY      PTCLDY    79  77  94 SE5       30.00R HX  83
MT. PLEASANT * CLEAR     79  79 100 SE3       29.99R HX  84
MUSCATINE *    CLEAR     77  75  94 NE3       29.99S
QUAD CITIES    PTCLDY    80  75  84 CALM      29.99R HX  85
$$

IAZ062-063-075>077-085>089-095>099-230600-
   SOUTHEAST IOWA

CITY           SKY/WX    TMP DP  RH WIND       PRES   REMARKS
BURLINGTON     CLOUDY    78  77  96 S6        29.99S HX  81
FAIRFIELD *    CLEAR     81  77  89 S6        29.98S HX  88
KEOKUK *       CLOUDY    81  77  89 S6        29.98F HX  88
CENTERVILLE *    N/A     77  75  94 CALM      30.00R
OTTUMWA        CLEAR     78  74  87 S7        29.97S HX  81
WASHINGTON *   CLEAR     79  77  94 SE5       30.00R HX  83
$$

ABBREVIATIONS USED IN REMARKS
   TC - TEMPERATURES IN CELSIUS
  WCI - WIND CHILL INDEX
   HX - HEAT INDEX
  VSB - VISIBILITY
$$




USA.gov is the U.S. government's official web portal to all federal, state and local government web resources and services.